Simultaneous Nadir Overpasses (SNOs) Predictions

Prediction of SNOs between LANDSAT-8 and NPP Satellite Orbit:

Table of predicted SNOs for the next 14.0 days since TLE Epoch: 6/11/2016
Index Date (LANDSAT-8) Time (LANDSAT-8) Lat,Lon (LANDSAT-8) SZA (LANDSAT-8 ) Date (NPP) Time (NPP) Lat,Lon (NPP) SZA (NPP ) Distance(km) Time Diff (sec)
1 06/12/2016 06:08:37 70.18, 84.36 46.94 06/12/2016 06:08:03 70.18, 84.43 46.94 2.73 34
2 06/12/2016 06:58:06 -70.12,-108.09 133.13 06/12/2016 06:58:45 -70.11,-108.14 133.14 2.10 39
3 06/14/2016 21:35:32 -70.67, 33.34 132.72 06/14/2016 21:34:22 -70.74, 32.00 132.60 49.53 70
4 06/14/2016 22:25:07 70.13,-159.82 46.76 06/14/2016 22:24:57 70.14,-159.74 46.77 3.04 10
5 06/14/2016 23:14:36 -70.08, 7.74 133.29 06/14/2016 23:15:39 -70.06, 7.70 133.31 2.16 63
6 06/17/2016 13:52:08 -70.25, 148.59 133.21 06/17/2016 13:51:06 -70.23, 148.59 133.22 2.04 62
7 06/17/2016 14:41:35 70.14, -43.92 46.69 06/17/2016 14:41:51 70.16, -44.00 46.71 3.61 16
8 06/17/2016 15:31:14 -69.54, 122.88 133.89 06/17/2016 15:32:23 -69.55, 124.23 133.93 52.72 69
9 06/20/2016 06:08:38 -70.20, -95.60 133.29 06/20/2016 06:08:00 -70.19, -95.58 133.29 0.92 38
10 06/20/2016 06:58:05 70.09, 71.89 46.61 06/20/2016 06:58:44 70.07, 71.91 46.59 1.66 39
11 06/22/2016 21:35:31 70.63,-146.71 47.14 06/22/2016 21:34:20 70.67,-147.89 47.23 43.40 71
12 06/22/2016 22:25:08 -70.14, 20.21 133.33 06/22/2016 22:24:54 -70.16, 20.24 133.31 2.00 14
13 06/22/2016 23:14:35 70.03,-172.31 46.57 06/22/2016 23:15:38 70.04,-172.28 46.57 2.01 63




NCC Satellite Simultaneous Nadir Overpasses (SNOs) Prediction Service
